Location: Caltech
(34.1382°N, 118.1253°W)
Time: 00:47:20
(UTC-07:00)

ADEOS II - Visible Passes

Search period start: 27 July 2016 00:00
Search period end: 06 August 2016 00:00
Orbit: 800 x 802 km, 98.3° (Epoch: 26 July)

Date Brightness Start Highest point End Pass type
(mag) Time Alt. Az. Time Alt. Az. Time Alt. Az.
27 Jul 3.1 04:49:26 10° NNE 04:54:29 46° E 04:59:30 10° S visible
28 Jul 4.1 04:23:44 10° NE 04:28:01 25° E 04:32:17 10° SSE visible
29 Jul 4.7 03:58:59 10° ENE 04:01:28 13° E 04:03:57 10° ESE visible
30 Jul 2.3 05:09:57 10° NNE 05:15:14 76° ESE 05:20:29 10° S visible
31 Jul 3.3 04:43:54 10° NNE 04:48:51 41° E 04:53:46 10° SSE visible
01 Aug 4.3 04:18:19 10° NE 04:22:22 22° E 04:26:24 10° SE visible
02 Aug 4.8 03:54:01 10° ENE 03:55:48 12° E 03:57:36 10° ESE visible
02 Aug 2.1 05:30:42 10° N 05:35:55 67° WNW 05:41:07 10° SSW visible
03 Aug 2.5 05:04:22 10° NNE 05:09:37 67° ESE 05:14:50 10° S visible
04 Aug 3.5 04:38:23 10° NNE 04:43:13 36° E 04:48:01 10° SSE visible
05 Aug 4.4 04:12:56 10° NE 04:16:43 20° E 04:20:29 10° SE visible
